Regional Weather Roundup
Issued by NWS State College, PA

Home | Current Version | Previous Version | Text Only | Print | Product List | Glossary On
Versions: 1 2 3 4 5 6 7 8 9 10 11 12 13 14 15 16 17 18 19 20 21 22 23 24 25 26 27 28 29 30 31 32 33 34 35 36 37 38 39 40 41 42 43 44 45 46 47 48 49 50
012
ASUS41 KCTP 141910
RWRCTP

REGIONAL WEATHER ROUNDUP
NATIONAL WEATHER SERVICE STATE COLLEGE PA
200 PM EST SUN FEB 14 2016

Note: "fair" indicates few or no clouds below 12,000 feet with no
significant weather and/or obstructions to visibility.

* = STATION THAT DOES NOT REPORT PRECIPITATION /E.G. RAIN...SNOW...ETC/
    THUNDER OR FOG.

PAZ002>004-007>009-013>016-020>023-029>032-142000-
WESTERN PENNSYLVANIA

CITY           SKY/WX    TMP DP  RH WIND       PRES   REMARKS
ERIE           PTSUNNY   17   2  51 N8        30.41F WCI   7
MEADVILLE      PTSUNNY   13  -1  54 VRB5      30.33F WCI   5
FRANKLIN*      MOSUNNY   14  -4  44 S7        30.35F WCI   4
NEW CASTLE     FAIR      22   3  44 VRB5      30.38F
BEAVER COUNTY  NOT AVBL
BUTLER*        CLOUDY    12   0  57 SE8       30.40F WCI   1
PITTSBURGH INT CLOUDY    16  -4  41 SE6       30.36F WCI   7
PITTSBURGH     CLOUDY    16   0  49 VRB7      30.35F WCI   6
INDIANA*       MOSUNNY   12   0  57 CALM      30.39F
LATROBE        SUNNY     14   0  52 NE5       30.39F WCI   6
WASHINGTON CO* CLOUDY    16   0  48 NE3       30.36F
$$

PAZ004>006-010>012-017>019-024>028-033>037-041-042-045-046-049>053-142000-
CENTRAL PENNSYLVANIA

CITY           SKY/WX    TMP DP  RH WIND       PRES   REMARKS
BRADFORD       SUNNY     11  -7  44 CALM      30.27F
DUBOIS         MOSUNNY   14  -2  49 NE3       30.30F
CLEARFIELD     MIX PCPN  16  -2  45 CALM      30.34F
JOHNSTOWN      SUNNY     11  -5  48 CALM      30.26F
ALTOONA        SUNNY     14  -1  51 VRB5      30.36F WCI   6
STATE COLLEGE  SUNNY     16  -2  45 SW5       30.38F WCI   9
WILLIAMSPORT   SUNNY     15 -10  32 VRB5      30.47F WCI   8
SELINSGROVE    SUNNY     14  -3  47 E6        30.49F WCI   5
FT INDIANTOWN  SUNNY     16  -9  33 N12       30.47F WCI   3
CAPITAL CITY   SUNNY     18  -3  39 VRB5      30.49F WCI  11
HARRISBURG     MOSUNNY   17  -2  43 NW5       30.49F WCI  10
YORK           SUNNY     17  -2  43 W6        30.48F WCI   9
$$

PAZ038>040-043-044-047-048-054-055-060>062-067>071-142000-
EASTERN PENNSYLVANIA

CITY           SKY/WX    TMP DP  RH WIND       PRES   REMARKS
SCRANTON       SUNNY      9  -9  44 CALM      30.43F
MOUNT POCONO   SUNNY      5 -14  41 NW12      30.30F WCI -11
ALLENTOWN      SUNNY     14 -10  33 VRB5      30.49F WCI   6
QUAKERTOWN*    CLEAR     12  -8  40 N6        30.48F WCI   3
READING        SUNNY     15  -7  37 W9        30.50F WCI   3
LANCASTER      SUNNY     14  -3  47 NW5       30.49F WCI   6
COATESVILLE    CLEAR     10  -4  52 W10       30.48F WCI  -3
POTTSTOWN      SUNNY     13  -8  39 NW8       30.51F WCI   2
BLUE BELL        N/A     14  -6  41 SW6       30.50S WCI   5
DOYLESTOWN     SUNNY     13 -10  35 N9        30.48F WCI   1
WILLOW GROVE   NOT AVBL
NORTH PHILA    SUNNY     17  -8  32 N10       30.53F WCI   5
PHILADELPHIA   MOSUNNY   17 -13  25 N8        30.53F WCI   7
$$




USA.gov is the U.S. government's official web portal to all federal, state and local government web resources and services.